Вернуться в каталог

STARLINK-3177

АктивенСвязьVLEO
NORAD 51138·PAYLOAD·🇺🇸 United States

Запущен Jan 19, 2022 с Cape Canaveral Space Force Station

Loading…

Ближайшие Пролёты (ближайшие 24 часа)

TLE

СвежийSource: CelesTrak SupGP

Эпоха: Sep 15, 2026, 02:17 UTC

1 51138C 22005AL  26258.09562500  .00010724  00000+0  62499-3 0  2581
2 51138  53.1700 167.4170 0003127  78.7341 355.7426 15.11486649    13

Отслеживайте STARLINK-3177 в реальном времени с AllMySat

Download on the App Store